| time (UTC) | temp C | wind direction | speed KPH | gust KPH | rain 1hr cm | rain 24hr cm | rain mn cm | humidity % | barometer mb |
| 20260510121223 | 20 | 244 | 1.6 | 4.8 | 0.00 | 0.00 | 0.00 | 97 | 1013.0 |
| 20260510120724 | 20 | 237 | 4.8 | 4.8 | 0.00 | 0.00 | 0.00 | 97 | 1013.0 |
| 20260510120224 | 20 | 234 | 3.2 | 3.2 | 0.00 | 0.00 | 0.00 | 97 | 1013.0 |
| 20260510115723 | 20 | 215 | 1.6 | 3.2 | 0.00 | 0.00 | 0.00 | 97 | 1013.0 |
| 20260510115223 | 20 | 199 | 3.2 | 4.8 | 0.00 | 0.00 | 0.00 | 97 | 1013.0 |
| 20260510114723 | 20 | 207 | 1.6 | 4.8 | 0.00 | 0.00 | 0.00 | 96 | 1013.0 |
| 20260510114223 | 20 | 207 | 3.2 | 4.8 | 0.00 | 0.00 | 0.00 | 96 | 1013.0 |
| 20260510113723 | 20 | 161 | 3.2 | 4.8 | 0.00 | 0.00 | 0.00 | 96 | 1013.0 |
| 20260510113223 | 20 | 185 | 3.2 | 6.4 | 0.00 | 0.00 | 0.00 | 96 | 1013.0 |
| 20260510112724 | 20 | 219 | 3.2 | 4.8 | 0.00 | 0.00 | 0.00 | 96 | 1013.0 |
| 20260510112224 | 20 | 197 | 1.6 | 4.8 | 0.00 | 0.00 | 0.00 | 96 | 1013.0 |
| 20260510111723 | 20 | 205 | 3.2 | 6.4 | 0.00 | 0.00 | 0.00 | 96 | 1013.0 |
| 20260510111223 | 20 | 246 | 0.0 | 4.8 | 0.00 | 0.00 | 0.00 | 96 | 1013.0 |
| 20260510110723 | 20 | 194 | 0.0 | 6.4 | 0.00 | 0.00 | 0.00 | 96 | 1013.0 |
| 20260510110223 | 20 | 229 | 1.6 | 4.8 | 0.00 | 0.00 | 0.00 | 96 | 1013.0 |
| 20260510105723 | 20 | 190 | 1.6 | 4.8 | 0.00 | 0.00 | 0.00 | 96 | 1013.0 |
| 20260510105223 | 20 | 136 | 3.2 | 4.8 | 0.00 | 0.00 | 0.00 | 96 | 1013.0 |
| 20260510104723 | 20 | 110 | 3.2 | 6.4 | 0.00 | 0.00 | 0.00 | 96 | 1013.0 |
| 20260510104223 | 20 | 123 | 3.2 | 6.4 | 0.00 | 0.00 | 0.00 | 96 | 1013.0 |
| 20260510103723 | 20 | 141 | 3.2 | 4.8 | 0.00 | 0.00 | 0.00 | 96 | 1013.0 |
| 20260510103223 | 20 | 136 | 3.2 | 4.8 | 0.00 | 0.00 | 0.00 | 96 | 1013.0 |
| 20260510102723 | 20 | 134 | 3.2 | 4.8 | 0.00 | 0.00 | 0.00 | 96 | 1013.0 |
| 20260510102223 | 20 | 126 | 3.2 | 6.4 | 0.00 | 0.00 | 0.00 | 96 | 1013.0 |
| 20260510101723 | 20 | 129 | 3.2 | 3.2 | 0.00 | 0.00 | 0.00 | 96 | 1013.0 |
| 20260510101223 | 20 | 126 | 0.0 | 1.6 | 0.00 | 0.00 | 0.00 | 96 | 1013.0 |
| 20260510100724 | 20 | 151 | 0.0 | 1.6 | 0.00 | 0.00 | 0.00 | 96 | 1013.0 |
| 20260510100224 | 20 | 130 | 0.0 | 3.2 | 0.00 | 0.00 | 0.00 | 96 | 1013.0 |
| 20260510095723 | 20 | 88 | 0.0 | 3.2 | 0.00 | 0.00 | 0.00 | 95 | 1013.0 |
| 20260510095226 | 20 | 108 | 3.2 | 4.8 | 0.00 | 0.00 | 0.00 | 95 | 1013.0 |
| 20260510094723 | 20 | 145 | 1.6 | 3.2 | 0.00 | 0.00 | 0.00 | 95 | 1013.0 |
| 20260510094223 | 20 | 223 | 1.6 | 3.2 | 0.00 | 0.00 | 0.00 | 94 | 1013.0 |
| 20260510093723 | 20 | 147 | 0.0 | 3.2 | 0.00 | 0.00 | 0.00 | 94 | 1013.0 |
| 20260510093223 | 20 | 91 | 1.6 | 4.8 | 0.00 | 0.00 | 0.00 | 94 | 1013.0 |
| 20260510092723 | 20 | 121 | 3.2 | 4.8 | 0.00 | 0.00 | 0.00 | 95 | 1013.0 |
| 20260510092224 | 20 | 133 | 4.8 | 4.8 | 0.00 | 0.00 | 0.00 | 95 | 1013.0 |
| 20260510091723 | 20 | 123 | 4.8 | 6.4 | 0.00 | 0.00 | 0.00 | 96 | 1013.0 |
| 20260510091223 | 20 | 130 | 3.2 | 4.8 | 0.00 | 0.00 | 0.00 | 96 | 1013.0 |
| 20260510090724 | 20 | 115 | 1.6 | 4.8 | 0.00 | 0.00 | 0.00 | 96 | 1013.0 |
| 20260510090224 | 20 | 99 | 1.6 | 3.2 | 0.00 | 0.00 | 0.00 | 96 | 1013.0 |
| 20260510085723 | 20 | 138 | 1.6 | 3.2 | 0.00 | 0.00 | 0.00 | 96 | 1013.0 |
| 20260510085223 | 21 | 135 | 3.2 | 3.2 | 0.00 | 0.00 | 0.00 | 96 | 1013.0 |
| 20260510084723 | 21 | 93 | 0.0 | 3.2 | 0.00 | 0.00 | 0.00 | 95 | 1012.0 |
| 20260510084223 | 21 | 99 | 1.6 | 3.2 | 0.00 | 0.00 | 0.00 | 96 | 1013.0 |
| 20260510083724 | 21 | 102 | 3.2 | 4.8 | 0.00 | 0.00 | 0.00 | 96 | 1013.0 |
| 20260510083223 | 21 | 141 | 3.2 | 4.8 | 0.00 | 0.00 | 0.00 | 96 | 1012.0 |
| 20260510082723 | 21 | 139 | 1.6 | 3.2 | 0.00 | 0.00 | 0.00 | 96 | 1012.0 |
| 20260510082223 | 21 | 131 | 1.6 | 3.2 | 0.00 | 0.00 | 0.00 | 97 | 1012.0 |
| 20260510081723 | 21 | 125 | 1.6 | 4.8 | 0.00 | 0.00 | 0.00 | 97 | 1013.0 |
| 20260510081223 | 21 | 102 | 1.6 | 3.2 | 0.00 | 0.00 | 0.00 | 97 | 1013.0 |
| 20260510080723 | 21 | 106 | 3.2 | 4.8 | 0.00 | 0.00 | 0.00 | 97 | 1013.0 |
| 20260510080223 | 21 | 111 | 3.2 | 3.2 | 0.00 | 0.00 | 0.00 | 97 | 1013.0 |
| 20260510075723 | 21 | 99 | 1.6 | 3.2 | 0.00 | 0.00 | 0.00 | 96 | 1013.0 |
| 20260510075223 | 21 | 124 | 1.6 | 3.2 | 0.00 | 0.00 | 0.00 | 96 | 1012.0 |
| 20260510074723 | 21 | 113 | 3.2 | 3.2 | 0.00 | 0.00 | 0.00 | 96 | 1013.0 |
| 20260510074223 | 21 | 129 | 1.6 | 3.2 | 0.00 | 0.00 | 0.00 | 95 | 1013.0 |
| 20260510073723 | 21 | 129 | 0.0 | 3.2 | 0.00 | 0.00 | 0.00 | 95 | 1013.0 |
| 20260510073223 | 21 | 101 | 0.0 | 3.2 | 0.00 | 0.00 | 0.00 | 95 | 1012.0 |
| 20260510072723 | 21 | 37 | 0.0 | 1.6 | 0.00 | 0.00 | 0.00 | 94 | 1012.0 |
| 20260510072223 | 21 | 124 | 3.2 | 3.2 | 0.00 | 0.00 | 0.00 | 93 | 1012.0 |
| 20260510071723 | 21 | 60 | 0.0 | 1.6 | 0.00 | 0.00 | 0.00 | 93 | 1012.0 |
| 20260510071223 | 22 | 44 | 0.0 | 1.6 | 0.00 | 0.00 | 0.00 | 92 | 1012.0 |
| 20260510070723 | 22 | 114 | 0.0 | 3.2 | 0.00 | 0.00 | 0.00 | 92 | 1012.0 |
| 20260510070223 | 22 | 126 | 3.2 | 4.8 | 0.00 | 0.00 | 0.00 | 91 | 1012.0 |
| 20260510065723 | 22 | 129 | 3.2 | 4.8 | 0.00 | 0.00 | 0.00 | 91 | 1012.0 |
| 20260510065224 | 22 | 101 | 1.6 | 4.8 | 0.00 | 0.00 | 0.00 | 91 | 1012.0 |
| 20260510064723 | 22 | 154 | 3.2 | 4.8 | 0.00 | 0.00 | 0.00 | 91 | 1012.0 |
| 20260510064223 | 22 | 122 | 4.8 | 6.4 | 0.00 | 0.00 | 0.00 | 91 | 1012.0 |
| 20260510063723 | 22 | 142 | 3.2 | 6.4 | 0.00 | 0.00 | 0.00 | 91 | 1012.0 |
| 20260510063223 | 22 | 150 | 3.2 | 3.2 | 0.00 | 0.00 | 0.00 | 91 | 1012.0 |
| 20260510062723 | 22 | 148 | 1.6 | 4.8 | 0.00 | 0.00 | 0.00 | 91 | 1012.0 |
| 20260510062223 | 22 | 143 | 3.2 | 4.8 | 0.00 | 0.00 | 0.00 | 91 | 1012.0 |
| 20260510061723 | 22 | 110 | 1.6 | 4.8 | 0.00 | 0.00 | 0.00 | 91 | 1012.0 |
| 20260510061223 | 22 | 146 | 0.0 | 3.2 | 0.00 | 0.00 | 0.00 | 91 | 1012.0 |
| 20260510060723 | 22 | 135 | 1.6 | 4.8 | 0.00 | 0.00 | 0.00 | 92 | 1012.0 |
| 20260510060223 | 22 | 105 | 1.6 | 3.2 | 0.00 | 0.00 | 0.00 | 92 | 1012.0 |
| 20260510055723 | 22 | 88 | 1.6 | 3.2 | 0.00 | 0.00 | 0.00 | 93 | 1012.0 |
| 20260510055223 | 22 | 89 | 0.0 | 1.6 | 0.00 | 0.00 | 0.00 | 93 | 1012.0 |
| 20260510054724 | 22 | 127 | 0.0 | 1.6 | 0.00 | 0.00 | 0.00 | 92 | 1012.0 |
| 20260510054223 | 22 | 142 | 0.0 | 3.2 | 0.00 | 0.00 | 0.00 | 92 | 1012.0 |
| 20260510053249 | 22 | 135 | 0.0 | 1.6 | 0.00 | 0.00 | 0.00 | 92 | 1012.0 |
| 20260510052724 | 22 | 135 | 0.0 | 1.6 | 0.00 | 0.00 | 0.00 | 92 | 1012.0 |
| 20260510052223 | 22 | 105 | 1.6 | 1.6 | 0.00 | 0.00 | 0.00 | 92 | 1012.0 |
| 20260510051724 | 22 | 88 | 1.6 | 3.2 | 0.00 | 0.00 | 0.00 | 93 | 1012.0 |
| 20260510051223 | 22 | 111 | 1.6 | 3.2 | 0.00 | 0.00 | 0.00 | 93 | 1012.0 |
| 20260510050723 | 22 | 125 | 1.6 | 3.2 | 0.00 | 0.00 | 0.00 | 92 | 1012.0 |
| 20260510050223 | 22 | 93 | 0.0 | 1.6 | 0.00 | 0.00 | 0.00 | 91 | 1012.0 |
| 20260510045723 | 23 | 99 | 1.6 | 3.2 | 0.00 | 0.00 | 0.25 | 90 | 1012.0 |
| 20260510045223 | 23 | 95 | 0.0 | 1.6 | 0.00 | 0.00 | 0.25 | 89 | 1012.0 |
| 20260510044723 | 23 | 96 | 3.2 | 3.2 | 0.00 | 0.00 | 0.25 | 88 | 1012.0 |
| 20260510044225 | 23 | 123 | 1.6 | 1.6 | 0.00 | 0.00 | 0.25 | 86 | 1012.0 |
| 20260510043723 | 23 | 106 | 1.6 | 3.2 | 0.00 | 0.00 | 0.25 | 85 | 1012.0 |
| 20260510043223 | 23 | 133 | 3.2 | 6.4 | 0.00 | 0.00 | 0.25 | 86 | 1012.0 |
| 20260510042723 | 23 | 63 | 0.0 | 1.6 | 0.00 | 0.00 | 0.25 | 88 | 1012.0 |
| 20260510042223 | 23 | 88 | 1.6 | 1.6 | 0.00 | 0.00 | 0.25 | 88 | 1012.0 |
| 20260510041723 | 23 | 96 | 1.6 | 1.6 | 0.00 | 0.00 | 0.25 | 87 | 1012.0 |
| 20260510041224 | 23 | 97 | 1.6 | 3.2 | 0.00 | 0.00 | 0.25 | 87 | 1012.0 |
| 20260510040724 | 23 | 107 | 3.2 | 4.8 | 0.00 | 0.00 | 0.25 | 89 | 1012.0 |
| 20260510040223 | 23 | 135 | 0.0 | 3.2 | 0.00 | 0.00 | 0.25 | 91 | 1012.0 |
| 20260510035723 | 23 | 156 | 1.6 | 1.6 | 0.00 | 0.00 | 0.25 | 90 | 1012.0 |
| 20260510035226 | 23 | 51 | 0.0 | 1.6 | 0.00 | 0.00 | 0.25 | 90 | 1012.0 |
| 20260510034723 | 23 | 126 | 0.0 | 1.6 | 0.00 | 0.00 | 0.25 | 90 | 1012.0 |
| 20260510034223 | 23 | 132 | 0.0 | 3.2 | 0.00 | 0.00 | 0.25 | 90 | 1012.0 |
| 20260510033723 | 23 | 123 | 1.6 | 1.6 | 0.00 | 0.00 | 0.25 | 90 | 1011.0 |
| 20260510033224 | 23 | 92 | 0.0 | 1.6 | 0.00 | 0.00 | 0.25 | 90 | 1011.0 |
| 20260510032723 | 23 | 115 | 0.0 | 1.6 | 0.00 | 0.00 | 0.25 | 90 | 1011.0 |
| 20260510032223 | 23 | 130 | 0.0 | 3.2 | 0.00 | 0.00 | 0.25 | 90 | 1011.0 |
| 20260510031723 | 23 | 110 | 1.6 | 3.2 | 0.00 | 0.00 | 0.25 | 90 | 1012.0 |
| 20260510031223 | 23 | 132 | 0.0 | 1.6 | 0.00 | 0.00 | 0.25 | 90 | 1011.0 |
| 20260510030723 | 23 | 105 | 1.6 | 3.2 | 0.00 | 0.00 | 0.25 | 90 | 1011.0 |
| 20260510030223 | 23 | 105 | 0.0 | 1.6 | 0.00 | 0.00 | 0.25 | 89 | 1011.0 |
| 20260510025723 | 23 | 79 | 0.0 | 3.2 | 0.00 | 0.00 | 0.25 | 89 | 1011.0 |
| 20260510025224 | 23 | 99 | 1.6 | 3.2 | 0.00 | 0.00 | 0.25 | 88 | 1011.0 |
| 20260510024724 | 23 | 122 | 1.6 | 3.2 | 0.00 | 0.00 | 0.25 | 88 | 1011.0 |
| 20260510024223 | 23 | 157 | 0.0 | 0.0 | 0.00 | 0.00 | 0.25 | 87 | 1011.0 |
| 20260510023723 | 24 | 164 | 0.0 | 0.0 | 0.00 | 0.00 | 0.25 | 87 | 1011.0 |
| 20260510023223 | 24 | 343 | 0.0 | 1.6 | 0.00 | 0.00 | 0.25 | 86 | 1010.0 |
| 20260510022723 | 24 | 44 | 0.0 | 1.6 | 0.00 | 0.00 | 0.25 | 86 | 1010.0 |
| 20260510022224 | 25 | 56 | 1.6 | 1.6 | 0.00 | 0.00 | 0.25 | 85 | 1010.0 |
| 20260510021724 | 25 | 128 | 0.0 | 1.6 | 0.00 | 0.00 | 0.25 | 85 | 1010.0 |
| 20260510021223 | 25 | 130 | 0.0 | 1.6 | 0.00 | 0.00 | 0.25 | 85 | 1010.0 |
| 20260510020723 | 25 | 83 | 1.6 | 3.2 | 0.00 | 0.00 | 0.25 | 85 | 1010.0 |
| 20260510020223 | 25 | 135 | 0.0 | 1.6 | 0.00 | 0.00 | 0.25 | 85 | 1010.0 |
| 20260510015723 | 25 | 129 | 0.0 | 0.0 | 0.00 | 0.00 | 0.25 | 84 | 1010.0 |
| 20260510015223 | 25 | 103 | 1.6 | 1.6 | 0.00 | 0.00 | 0.25 | 84 | 1010.0 |
| 20260510014723 | 25 | 82 | 0.0 | 1.6 | 0.00 | 0.00 | 0.25 | 84 | 1010.0 |
| 20260510014223 | 25 | 108 | 1.6 | 3.2 | 0.00 | 0.00 | 0.25 | 83 | 1010.0 |
| 20260510013723 | 25 | 108 | 1.6 | 1.6 | 0.00 | 0.00 | 0.25 | 83 | 1010.0 |
| 20260510013223 | 25 | 98 | 0.0 | 3.2 | 0.00 | 0.00 | 0.25 | 83 | 1010.0 |
| 20260510012723 | 25 | 104 | 0.0 | 3.2 | 0.00 | 0.00 | 0.25 | 82 | 1010.0 |
| 20260510012223 | 25 | 87 | 1.6 | 3.2 | 0.00 | 0.00 | 0.25 | 81 | 1010.0 |
| 20260510011726 | 26 | 52 | 0.0 | 3.2 | 0.00 | 0.00 | 0.25 | 80 | 1010.0 |
| 20260510011223 | 26 | 104 | 0.0 | 3.2 | 0.00 | 0.00 | 0.25 | 80 | 1010.0 |
| 20260510010723 | 26 | 67 | 1.6 | 3.2 | 0.00 | 0.00 | 0.25 | 79 | 1010.0 |
| 20260510010223 | 26 | 113 | 0.0 | 3.2 | 0.00 | 0.00 | 0.25 | 78 | 1010.0 |
| 20260510005723 | 26 | 81 | 1.6 | 3.2 | 0.00 | 0.00 | 0.25 | 77 | 1010.0 |
| 20260510005223 | 26 | 74 | 1.6 | 3.2 | 0.00 | 0.00 | 0.25 | 76 | 1010.0 |
| 20260510004724 | 26 | 105 | 3.2 | 3.2 | 0.00 | 0.00 | 0.25 | 75 | 1010.0 |
| 20260510004223 | 26 | 83 | 1.6 | 3.2 | 0.00 | 0.00 | 0.25 | 74 | 1009.0 |
| 20260510003723 | 26 | 75 | 0.0 | 1.6 | 0.00 | 0.00 | 0.25 | 76 | 1009.0 |
| 20260510003224 | 26 | 136 | 0.0 | 1.6 | 0.00 | 0.00 | 0.25 | 76 | 1009.0 |
| 20260510002724 | 26 | 104 | 1.6 | 1.6 | 0.00 | 0.00 | 0.25 | 75 | 1009.0 |
| 20260510002225 | 26 | 99 | 1.6 | 3.2 | 0.00 | 0.00 | 0.25 | 77 | 1009.0 |
| 20260510001723 | 25 | 87 | 1.6 | 3.2 | 0.00 | 0.00 | 0.25 | 74 | 1009.0 |
| 20260510001223 | 26 | 43 | 1.6 | 3.2 | 0.00 | 0.00 | 0.25 | 74 | 1009.0 |
| 20260510000723 | 26 | 80 | 0.0 | 3.2 | 0.00 | 0.00 | 0.25 | 76 | 1009.0 |
| 20260510000226 | 25 | 65 | 1.6 | 3.2 | 0.00 | 0.00 | 0.25 | 75 | 1009.0 |
| 20260509235723 | 25 | 108 | 1.6 | 3.2 | 0.00 | 0.00 | 0.25 | 77 | 1009.0 |
| 20260509235223 | 25 | 77 | 1.6 | 4.8 | 0.00 | 0.00 | 0.25 | 81 | 1009.0 |
| 20260509234723 | 25 | 91 | 1.6 | 3.2 | 0.00 | 0.00 | 0.25 | 79 | 1009.0 |
| 20260509234223 | 25 | 85 | 1.6 | 3.2 | 0.00 | 0.00 | 0.25 | 78 | 1009.0 |
| 20260509233723 | 25 | 81 | 3.2 | 4.8 | 0.00 | 0.00 | 0.25 | 79 | 1009.0 |
| 20260509233223 | 25 | 102 | 1.6 | 3.2 | 0.00 | 0.00 | 0.25 | 84 | 1009.0 |
| 20260509232723 | 25 | 5 | 0.0 | 3.2 | 0.00 | 0.00 | 0.25 | 85 | 1009.0 |
| 20260509232223 | 25 | 105 | 4.8 | 4.8 | 0.00 | 0.00 | 0.25 | 81 | 1009.0 |
| 20260509231723 | 25 | 22 | 0.0 | 3.2 | 0.00 | 0.00 | 0.25 | 76 | 1009.0 |
| 20260509231223 | 26 | 262 | 8.0 | 9.7 | 0.00 | 0.00 | 0.25 | 78 | 1009.0 |
| 20260509230723 | 25 | 355 | 0.0 | 3.2 | 0.00 | 0.00 | 0.25 | 78 | 1009.0 |
| 20260509230223 | 25 | 74 | 3.2 | 6.4 | 0.00 | 0.00 | 0.25 | 76 | 1009.0 |
| 20260509225723 | 24 | 164 | 8.0 | 8.0 | 0.18 | 0.00 | 0.25 | 76 | 1009.0 |
| 20260509225223 | 24 | 217 | 3.2 | 11.3 | 0.61 | 0.00 | 0.25 | 74 | 1009.0 |
| 20260509224724 | 24 | 271 | 12.9 | 20.9 | 0.53 | 0.00 | 0.20 | 69 | 1008.0 |
| 20260509224223 | 23 | 37 | 3.2 | 32.2 | 0.84 | 0.00 | 0.15 | 68 | 1009.0 |
| 20260509223723 | 24 | 302 | 9.7 | 16.1 | 0.71 | 0.00 | 0.13 | 74 | 1009.0 |
| 20260509223223 | 27 | 337 | 3.2 | 8.0 | 0.05 | 0.00 | 0.00 | 74 | 1009.0 |
| 20260509222723 | 29 | 83 | 6.4 | 12.9 | 0.00 | 0.00 | 0.00 | 65 | 1009.0 |
| 20260509222223 | 31 | 59 | 6.4 | 8.0 | 0.00 | 0.00 | 0.00 | 55 | 1009.0 |
| 20260509221724 | 32 | 67 | 1.6 | 4.8 | 0.00 | 0.00 | 0.00 | 55 | 1009.0 |
| 20260509221223 | 31 | 87 | 3.2 | 8.0 | 0.00 | 0.00 | 0.00 | 53 | 1009.0 |
| 20260509220723 | 31 | 184 | 9.7 | 12.9 | 0.00 | 0.00 | 0.00 | 53 | 1009.0 |
| 20260509220223 | 31 | 139 | 3.2 | 6.4 | 0.00 | 0.00 | 0.00 | 54 | 1009.0 |
| 20260509215723 | 31 | 185 | 3.2 | 9.7 | 0.00 | 0.00 | 0.00 | 52 | 1009.0 |
| 20260509215223 | 32 | 179 | 11.3 | 12.9 | 0.00 | 0.00 | 0.00 | 52 | 1009.0 |
| 20260509214723 | 31 | 214 | 4.8 | 12.9 | 0.00 | 0.00 | 0.00 | 53 | 1009.0 |
| 20260509214223 | 32 | 215 | 4.8 | 9.7 | 0.00 | 0.00 | 0.00 | 52 | 1009.0 |
| 20260509213723 | 32 | 222 | 14.5 | 16.1 | 0.00 | 0.00 | 0.00 | 51 | 1009.0 |
| 20260509213223 | 32 | 234 | 4.8 | 11.3 | 0.00 | 0.00 | 0.00 | 51 | 1009.0 |
| 20260509212724 | 32 | 204 | 4.8 | 14.5 | 0.00 | 0.00 | 0.00 | 50 | 1009.0 |
| 20260509212223 | 32 | 198 | 6.4 | 8.0 | 0.00 | 0.00 | 0.00 | 50 | 1009.0 |
| 20260509211723 | 32 | 174 | 11.3 | 12.9 | 0.00 | 0.00 | 0.00 | 52 | 1009.0 |
| 20260509211223 | 32 | 276 | 4.8 | 11.3 | 0.00 | 0.00 | 0.00 | 51 | 1009.0 |
| 20260509210724 | 31 | 223 | 3.2 | 8.0 | 0.00 | 0.00 | 0.00 | 54 | 1009.0 |
| 20260509210223 | 32 | 262 | 8.0 | 11.3 | 0.00 | 0.00 | 0.00 | 54 | 1009.0 |
| 20260509205723 | 32 | 233 | 9.7 | 14.5 | 0.00 | 0.00 | 0.00 | 54 | 1009.0 |
| 20260509205223 | 31 | 210 | 11.3 | 11.3 | 0.00 | 0.00 | 0.00 | 53 | 1010.0 |
| 20260509204723 | 31 | 250 | 6.4 | 8.0 | 0.00 | 0.00 | 0.00 | 53 | 1010.0 |
| 20260509204223 | 31 | 268 | 6.4 | 17.7 | 0.00 | 0.00 | 0.00 | 53 | 1010.0 |
| 20260509203724 | 31 | 310 | 8.0 | 8.0 | 0.00 | 0.00 | 0.00 | 53 | 1010.0 |
| 20260509203223 | 31 | 213 | 8.0 | 11.3 | 0.00 | 0.00 | 0.00 | 53 | 1010.0 |
| 20260509202723 | 31 | 221 | 11.3 | 11.3 | 0.00 | 0.00 | 0.00 | 53 | 1010.0 |
| 20260509202223 | 31 | 151 | 4.8 | 8.0 | 0.00 | 0.00 | 0.00 | 52 | 1010.0 |
| 20260509201724 | 31 | 337 | 4.8 | 9.7 | 0.00 | 0.00 | 0.00 | 53 | 1010.0 |
| 20260509201224 | 31 | 263 | 8.0 | 14.5 | 0.00 | 0.00 | 0.00 | 55 | 1010.0 |
| 20260509200723 | 31 | 248 | 12.9 | 12.9 | 0.00 | 0.00 | 0.00 | 51 | 1010.0 |
| 20260509200223 | 31 | 210 | 0.0 | 11.3 | 0.00 | 0.00 | 0.00 | 56 | 1010.0 |
| 20260509195723 | 31 | 218 | 4.8 | 4.8 | 0.00 | 0.00 | 0.00 | 55 | 1010.0 |
| 20260509195223 | 31 | 210 | 11.3 | 16.1 | 0.00 | 0.00 | 0.00 | 53 | 1010.0 |
| 20260509194724 | 31 | 254 | 11.3 | 16.1 | 0.00 | 0.00 | 0.00 | 55 | 1010.0 |
| 20260509194223 | 30 | 129 | 0.0 | 4.8 | 0.00 | 0.00 | 0.00 | 56 | 1011.0 |
| 20260509193723 | 31 | 176 | 4.8 | 12.9 | 0.00 | 0.00 | 0.00 | 58 | 1011.0 |
| 20260509193223 | 30 | 228 | 6.4 | 6.4 | 0.00 | 0.00 | 0.00 | 62 | 1011.0 |
| 20260509192728 | 30 | 256 | 6.4 | 9.7 | 0.00 | 0.00 | 0.00 | 60 | 1011.0 |
| 20260509192223 | 28 | 37 | 0.0 | 1.6 | 0.00 | 0.00 | 0.00 | 65 | 1011.0 |
| 20260509191723 | 30 | 165 | 0.0 | 3.2 | 0.00 | 0.00 | 0.00 | 65 | 1012.0 |
| 20260509191224 | 30 | 218 | 3.2 | 6.4 | 0.00 | 0.00 | 0.00 | 65 | 1012.0 |
| 20260509190723 | 30 | 215 | 3.2 | 6.4 | 0.00 | 0.00 | 0.00 | 64 | 1011.0 |
| 20260509190224 | 30 | 190 | 3.2 | 3.2 | 0.00 | 0.00 | 0.00 | 66 | 1012.0 |
| 20260509185723 | 30 | 65 | 3.2 | 8.0 | 0.00 | 0.00 | 0.00 | 66 | 1012.0 |
| 20260509185224 | 30 | 264 | 11.3 | 11.3 | 0.00 | 0.00 | 0.00 | 65 | 1012.0 |
| 20260509184723 | 29 | 144 | 6.4 | 6.4 | 0.00 | 0.00 | 0.00 | 67 | 1012.0 |
| 20260509184225 | 29 | 144 | 6.4 | 6.4 | 0.00 | 0.00 | 0.00 | 67 | 1012.0 |
| 20260509183723 | 29 | 175 | 6.4 | 8.0 | 0.00 | 0.00 | 0.00 | 69 | 1012.0 |
| 20260509183223 | 29 | 224 | 12.9 | 16.1 | 0.00 | 0.00 | 0.00 | 68 | 1012.0 |
| 20260509182724 | 29 | 240 | 4.8 | 9.7 | 0.00 | 0.00 | 0.00 | 68 | 1012.0 |
| 20260509182223 | 29 | 213 | 0.0 | 9.7 | 0.00 | 0.00 | 0.00 | 68 | 1012.0 |
| 20260509181723 | 29 | 272 | 0.0 | 4.8 | 0.00 | 0.00 | 0.00 | 67 | 1012.0 |
| 20260509181223 | 30 | 228 | 8.0 | 11.3 | 0.00 | 0.00 | 0.00 | 67 | 1012.0 |
| 20260509180724 | 28 | 241 | 8.0 | 9.7 | 0.00 | 0.00 | 0.00 | 71 | 1012.0 |
| 20260509180224 | 28 | 241 | 8.0 | 9.7 | 0.00 | 0.00 | 0.00 | 71 | 1012.0 |
| 20260509175723 | 28 | 241 | 8.0 | 9.7 | 0.00 | 0.00 | 0.00 | 71 | 1012.0 |
| 20260509175223 | 28 | 241 | 8.0 | 9.7 | 0.00 | 0.00 | 0.00 | 71 | 1012.0 |
| 20260509174723 | 28 | 246 | 3.2 | 6.4 | 0.00 | 0.00 | 0.00 | 71 | 1012.0 |
| 20260509174224 | 28 | 316 | 6.4 | 6.4 | 0.00 | 0.00 | 0.00 | 71 | 1012.0 |
| 20260509173724 | 28 | 210 | 3.2 | 11.3 | 0.00 | 0.00 | 0.00 | 71 | 1013.0 |
| 20260509173223 | 27 | 196 | 1.6 | 9.7 | 0.00 | 0.00 | 0.00 | 72 | 1013.0 |
| 20260509172723 | 28 | 298 | 1.6 | 6.4 | 0.00 | 0.00 | 0.00 | 69 | 1013.0 |
| 20260509172223 | 28 | 200 | 6.4 | 8.0 | 0.00 | 0.00 | 0.00 | 70 | 1013.0 |
| 20260509171725 | 28 | 273 | 8.0 | 11.3 | 0.00 | 0.00 | 0.00 | 70 | 1013.0 |
| 20260509171224 | 27 | 228 | 3.2 | 8.0 | 0.00 | 0.00 | 0.00 | 73 | 1013.0 |
| 20260509170723 | 27 | 273 | 4.8 | 11.3 | 0.00 | 0.00 | 0.00 | 69 | 1013.0 |
| 20260509170224 | 26 | 204 | 0.0 | 6.4 | 0.00 | 0.00 | 0.00 | 72 | 1013.0 |
| 20260509165723 | 27 | 273 | 6.4 | 14.5 | 0.00 | 0.00 | 0.00 | 73 | 1013.0 |
| 20260509165224 | 27 | 229 | 8.0 | 8.0 | 0.00 | 0.00 | 0.00 | 73 | 1013.0 |
| 20260509164723 | 27 | 280 | 4.8 | 12.9 | 0.00 | 0.00 | 0.00 | 72 | 1013.0 |
| 20260509164223 | 26 | 211 | 0.0 | 4.8 | 0.00 | 0.00 | 0.00 | 72 | 1013.0 |
| 20260509163724 | 26 | 230 | 3.2 | 11.3 | 0.00 | 0.00 | 0.00 | 75 | 1013.0 |
| 20260509163223 | 26 | 240 | 8.0 | 11.3 | 0.00 | 0.00 | 0.00 | 78 | 1013.0 |
| 20260509162723 | 26 | 221 | 0.0 | 6.4 | 0.00 | 0.00 | 0.00 | 77 | 1013.0 |
| 20260509162223 | 26 | 10 | 1.6 | 8.0 | 0.00 | 0.00 | 0.00 | 80 | 1013.0 |
| 20260509161724 | 26 | 203 | 4.8 | 9.7 | 0.00 | 0.00 | 0.00 | 78 | 1013.0 |
| 20260509161223 | 25 | 225 | 4.8 | 14.5 | 0.00 | 0.00 | 0.00 | 79 | 1013.0 |
| 20260509160723 | 25 | 290 | 6.4 | 16.1 | 0.00 | 0.00 | 0.00 | 84 | 1013.0 |
| 20260509160225 | 25 | 285 | 4.8 | 8.0 | 0.00 | 0.00 | 0.00 | 86 | 1013.0 |
| 20260509155723 | 24 | 269 | 3.2 | 9.7 | 0.00 | 0.00 | 0.00 | 89 | 1013.0 |
| 20260509155223 | 24 | 266 | 6.4 | 11.3 | 0.00 | 0.00 | 0.00 | 91 | 1013.0 |
| 20260509154723 | 24 | 240 | 8.0 | 9.7 | 0.00 | 0.00 | 0.00 | 92 | 1013.0 |
| 20260509154223 | 23 | 272 | 4.8 | 14.5 | 0.00 | 0.00 | 0.00 | 93 | 1013.0 |
| 20260509153723 | 24 | 268 | 6.4 | 14.5 | 0.00 | 0.00 | 0.00 | 93 | 1013.0 |
| 20260509153223 | 23 | 232 | 11.3 | 14.5 | 0.00 | 0.00 | 0.00 | 94 | 1013.0 |
| 20260509152723 | 23 | 287 | 9.7 | 12.9 | 0.00 | 0.00 | 0.00 | 97 | 1013.0 |
| 20260509152223 | 22 | 266 | 8.0 | 8.0 | 0.00 | 0.00 | 0.00 | 99 | 1013.0 |
| 20260509151724 | 22 | 248 | 8.0 | 8.0 | 0.00 | 0.00 | 0.00 | 99 | 1014.0 |
| 20260509151223 | 22 | 276 | 3.2 | 6.4 | 0.00 | 0.00 | 0.00 | 99 | 1013.0 |
| 20260509150723 | 21 | 274 | 1.6 | 3.2 | 0.00 | 0.00 | 0.00 | 99 | 1013.0 |
| 20260509150224 | 22 | 144 | 1.6 | 3.2 | 0.00 | 0.00 | 0.00 | 99 | 1014.0 |
| 20260509145724 | 22 | 260 | 1.6 | 3.2 | 0.00 | 0.00 | 0.00 | 99 | 1014.0 |
| 20260509145224 | 22 | 254 | 3.2 | 3.2 | 0.00 | 0.00 | 0.00 | 99 | 1014.0 |
| 20260509144723 | 22 | 94 | 0.0 | 3.2 | 0.00 | 0.00 | 0.00 | 99 | 1014.0 |
| 20260509144223 | 22 | 10 | 0.0 | 4.8 | 0.00 | 0.00 | 0.00 | 99 | 1014.0 |
| 20260509143725 | 22 | 33 | 0.0 | 3.2 | 0.00 | 0.00 | 0.00 | 99 | 1014.0 |
| 20260509143224 | 22 | 315 | 1.6 | 1.6 | 0.00 | 0.00 | 0.00 | 99 | 1014.0 |
| 20260509142723 | 22 | 151 | 1.6 | 3.2 | 0.00 | 0.00 | 0.00 | 99 | 1014.0 |
| 20260509142223 | 22 | 131 | 4.8 | 8.0 | 0.00 | 0.00 | 0.00 | 99 | 1014.0 |
| 20260509141724 | 22 | 121 | 3.2 | 4.8 | 0.00 | 0.00 | 0.00 | 99 | 1014.0 |
| 20260509141224 | 22 | 133 | 4.8 | 4.8 | 0.00 | 0.00 | 0.00 | 99 | 1014.0 |
| 20260509140724 | 22 | 118 | 3.2 | 4.8 | 0.00 | 0.00 | 0.00 | 99 | 1014.0 |
| 20260509140224 | 22 | 198 | 0.0 | 3.2 | 0.00 | 0.00 | 0.00 | 99 | 1014.0 |
| 20260509135723 | 22 | 166 | 1.6 | 4.8 | 0.00 | 0.00 | 0.00 | 99 | 1013.0 |
| 20260509135223 | 22 | 126 | 3.2 | 6.4 | 0.00 | 0.00 | 0.00 | 99 | 1013.0 |
| 20260509134724 | 22 | 205 | 0.0 | 3.2 | 0.00 | 0.00 | 0.00 | 99 | 1013.0 |
| 20260509134224 | 22 | 97 | 4.8 | 6.4 | 0.00 | 0.00 | 0.00 | 99 | 1013.0 |
| 20260509133724 | 22 | 112 | 4.8 | 8.0 | 0.00 | 0.00 | 0.00 | 99 | 1013.0 |
| 20260509133223 | 22 | 125 | 4.8 | 4.8 | 0.00 | 0.00 | 0.00 | 99 | 1013.0 |
| 20260509132724 | 22 | 112 | 1.6 | 6.4 | 0.00 | 0.00 | 0.00 | 99 | 1013.0 |
| 20260509132224 | 22 | 117 | 4.8 | 6.4 | 0.00 | 0.00 | 0.00 | 99 | 1013.0 |
| 20260509131723 | 22 | 98 | 3.2 | 3.2 | 0.00 | 0.00 | 0.00 | 99 | 1012.0 |
| 20260509131223 | 22 | 210 | 3.2 | 4.8 | 0.00 | 0.00 | 0.00 | 99 | 1013.0 |
| 20260509130723 | 22 | 152 | 0.0 | 3.2 | 0.00 | 0.00 | 0.00 | 99 | 1013.0 |
| 20260509130223 | 22 | 188 | 0.0 | 3.2 | 0.00 | 0.00 | 0.00 | 99 | 1013.0 |
| 20260509125723 | 22 | 80 | 0.0 | 3.2 | 0.00 | 0.00 | 0.00 | 99 | 1013.0 |
| 20260509125223 | 22 | 74 | 3.2 | 6.4 | 0.00 | 0.00 | 0.00 | 99 | 1013.0 |
| 20260509124723 | 22 | 63 | 3.2 | 4.8 | 0.00 | 0.00 | 0.00 | 99 | 1013.0 |
| 20260509124223 | 22 | 61 | 6.4 | 6.4 | 0.00 | 0.00 | 0.00 | 99 | 1013.0 |
| 20260509123724 | 22 | 65 | 4.8 | 4.8 | 0.00 | 0.00 | 0.00 | 99 | 1013.0 |
| 20260509123223 | 22 | 117 | 3.2 | 4.8 | 0.00 | 0.00 | 0.00 | 99 | 1013.0 |
| 20260509122723 | 22 | 110 | 4.8 | 8.0 | 0.00 | 0.00 | 0.00 | 99 | 1013.0 |
| 20260509122223 | 22 | 110 | 4.8 | 6.4 | 0.00 | 0.00 | 0.00 | 99 | 1013.0 |
| 20260509121725 | 22 | 101 | 1.6 | 4.8 | 0.00 | 0.00 | 0.00 | 99 | 1013.0 |